MIDAS 4 DEB, 195

Orbit data source: Space-Track

MIDAS 4 DEB, 195 is space debris in LEO originally from a launch on Sat, 21 Oct 1961 UTC launched from the Air Force Western Test Range (AFWTR). Debris objects in space refer to the collection of defunct objects orbiting the Earth. Examples of debris include non-operational satellites, rocket bodies, and fragments generated from explosions, collisions, or faulty payload assembly.

Loading next visibility...
MIDAS 4 DEB details
Identifier
195, 1961-028D
Orbit
LEO
Last TLE update1 day ago
Origin
Flag of USUSAF SSD (US)
ManufacturerUnknown
MissionSpacecraft
Bus & MotorUnknown
Mass~10 kg wet, ~10 kg dry
Launch date (UTC)
1961-10-21 (63 years ago)
Launch vehicleUnknown
Launch site
Air Force Western Test Range (AFWTR)
Object type
Payload
Rocket body
Debris
Shape & HBRUnknown
Radar Cross SectionMedium (>0.1 m² and <1 m²)

Expand to show TLE details & history

TLE from 1 day ago
0 MIDAS 4 DEB
1 00195U 61028D   25042.58627880 -.00000002  00000-0  70070-3 0  9999
2 00195  95.8679 101.6780 0127049 186.0664 173.8649  8.65618621   571
Epoch: 2025-02-11T14:04Z
Definitive object data (Epoch: 2025-02-11T14:04:14.488Z)
Latitude-0.00005°
Longitude108.72866°
Altitude3,770.224 km
Speed6.228 km/s
True Right ascension06h 46m 42s
True Declination0° 00' 00"
Sunlit
Object was in daylight at TLE epoch
Visualization TLE readout
Latitude0.49871°
Longitude108.89557°
Altitude3,770.474 km
Speed6.228 km/s
Apparent Right ascension06h 23m 22s
Apparent Declination-14° 59' 23"
Sunlit
Object is in daylight
Visualization observer readout
Local Sidereal Time17:33:20
Azimuth332.779° NNW
Elevation-62.781°
Doppler factor1
Orbital elements
Apogee altitude3,766.62 km
Perigee altitude3,512.078 km
Semi-major axis10,017.486 km
Eccentricity0.0127049
Inclination95.8679°
RAAN101.678°
Arg. of periapsis186.0664°
True anomaly174.01807°
Mean anomaly173.8649°
Eccentric anomaly173.94173°
Mean motion2.16474 °/min
BSTAR0.0007007
Orbital period166.3 mins
Loading maneuver chart data...
Loading historical data...
Loading historical data...
Loading historical data...
Loading historical data...
Loading historical data...
Loading historical data...
Loading historical data...

MIDAS 4 DEB Visibility forecast

Observer location: undefined°, undefined

Span
Click to sort rows by Start time (UTC) header in descending order
Start Az.
Max El. time (UTC)
Max El. Az.
Max El.
End time (UTC)
End Az.
36 mins2025-02-12 15:49:09.136Z10.773° NNE2025-02-12 16:07:09.136Z90.148° ESE43.979°2025-02-12 16:25:09.136Z183.482° SSW
28 mins2025-02-12 18:35:09.136Z358.653° N2025-02-12 18:49:09.136Z303.35° NW29.009°2025-02-12 19:03:09.136Z249.927° W
11 mins2025-02-12 23:48:09.136Z45.585° ENE2025-02-12 23:53:09.136Z28.774° NE12.565°2025-02-12 23:59:09.136Z8.732° NNE
33 mins2025-02-13 02:13:09.136Z129.276° SE2025-02-13 02:29:09.136Z63.085° ENE37.552°2025-02-13 02:46:09.136Z356.342° N
35 mins2025-02-13 04:55:09.136Z196.831° SSW2025-02-13 05:12:09.136Z269.752° W38.513°2025-02-13 05:30:09.136Z345.009° N
29 mins2025-02-13 14:04:09.136Z23.677° NE2025-02-13 14:18:09.136Z78.28° E27.117°2025-02-13 14:33:09.136Z137.813° SSE
|